Location: Bucharest
(44.4268°N, 26.1025°E)
Time: 00:43:01
(UTC+03:00)

O/OREOS (USA 219) - Pass Details

Date: 04 July 2022
Orbit: 621 x 646 km, 72.0° (Epoch: 22 May)

Event Time Altitude Azimuth Distance (km) Brightness Sun altitude
Rises 01:34:04 0° 331° (NNW) 2,965 ? -22.6°
Reaches altitude 10° 01:36:23 10° 327° (NNW) 2,052 ? -22.6°
Maximum altitude 01:40:52 52° 252° (WSW) 810 ? -22.5°
Enters shadow 01:40:59 51° 245° (WSW) 811 ? -22.5°
